{"data":{"norad_id":66238,"intl_designator":"2025-245E","name":"STARLINK-35556","alt_names":[],"object_type":"PAYLOAD","status":"ACTIVE","operator":null,"country":"US","launch_date":"2025-10-29","launch_site_code":"AFETR","launch_vehicle":null,"mission":null,"orbit_class":"UNKNOWN","rcs_meters":null,"size_class":null,"mass_kg":null,"dimensions":null,"purposes":["comms"],"wikipedia_slug":null,"has_3d_model":false,"image_url":null,"decayed_at":null,"tle_current":{"epoch":"2026-09-19T23:38:47.709888Z","epoch_age_seconds":141193,"freshness":"FRESH","line1":"1 66238U 25245E   26262.98527442  .00016671  00000+0  50332-3 0  9998","line2":"2 66238  53.1581  96.4780 0001000  98.1044 262.0072 15.34407399 51078","mean_motion":15.34407399,"eccentricity":0.0001,"inclination_deg":53.1581,"raan_deg":96.478,"arg_perigee_deg":98.1044,"mean_anomaly_deg":262.0072,"bstar":0.00050332,"rev_number":5107,"period_min":93.847305542092,"perigee_km":461.99716708332,"apogee_km":463.3653307331,"semimajor_km":6840.8182489082,"source":"CELESTRAK","updated_at":"2026-09-21T09:00:35.846316Z"}}}